Tracking 18840 objects as of 19-November-2017
HD Live streaming from Space Station
objects crossing your sky now

ISO

Track ISO now!
ISO is classified as:


NORAD ID: 23715
Int'l Code: 1995-062A
Perigee: 640.5 km
Apogee: 69,988.1 km
Inclination: 4.6 °
Period: 1,411.7 minutes
Semi major axis: 41685 km
RCS: 3.9811 m2 (large)
Launch date: November 17, 1995
Source: European Space Agency (ESA)
Launch site: FRENCH GUIANA (FRGUI)
aabbcc
Your satellite tracking list
Your tracking list is empty




NASA's NSSDC Master Catalog

Two Line Element Set (TLE):
1 23715U 95062A   17322.39918013 -.00000418 +00000-0 -90697-2 0  9997
2 23715 004.6205 009.8891 8317983 179.0077 184.6469 01.02006569081716
Source of the keplerian elements: AFSPC